Retour au catalogue

TELKOMSAT 113BT

ActifCommunicationsGEO
NORAD 58995·PAYLOAD·🇮🇩 Indonesia

Lancé Feb 20, 2024 depuis Cape Canaveral Space Force Station

Loading…

TLE

FraisSource: Space-Track

Époque: Sep 14, 2026, 14:20 UTC

1 58995U 24035A   26257.59754778 -.00000366  00000-0  00000-0 0  9990
2 58995   0.0182 185.4176 0000899 345.1166 151.1201  1.00271974  9486

Suivez TELKOMSAT 113BT en temps réel avec AllMySat

Download on the App Store